User: anonymous   Login
Location: UBC Liquid-Mirror Observatory
(49.2876°N, 122.5728°W)
Time: 02:28:28
(UTC-07:00)
Language:

KITSAT 1 - Orbit

View from above orbital plane
View from above orbital plane
View from above satellite
View from above satellite

Ground track
Ground track

The orbit data is extracted from the following two-line orbital elements,

1 22077U 92052B   18143.95297581 -.00000044 +00000-0 +72316-4 0  9991
2 22077 066.0850 332.7645 0014238 245.0982 264.6085 12.86523132210853
Epoch (UTC): 23 May 2018 22:52:17
Eccentricity: 0.0014238
inclination: 66.0850°
perigee height: 1304 km
apogee height: 1326 km
right ascension of ascending node: 332.7645°
argument of perigee: 245.0982°
revolutions per day: 12.86523132
mean anomaly at epoch: 264.6085°
orbit number at epoch: 21085

The dashed part of the orbit path shows where the satellite is in the earth's shadow,  

DLR